[[{"header":{"parameterUnit":"m.s-1","parameterCategory":1,"la1":30.2991,"la2":30.254,"lo1":-89.0895,"lo2":-89.0444,"dx":0.0017,"dy":0.0017,"nx":28,"ny":28,"refTime":"2022-11-16T15:00:00:Z","depth":0,"parameterNumber":2,"parameterNumberName":"U-component_of_WINDS"},"data":[0,0,0,0,0,0,0,0,0,0,0,0,0,0,0,0,0,0,0,0,0,0,0,0,0,0,0,0,0,0,0,0,0,0,0,0,0,0,0,0,0,0,0,0,0,0,0,0,0,0,0,0,0,0,0,0,0,0,0.0778,0.0777,0,0.0716,0.0715,0.0714,0.0722,0.0723,0.0724,0.0725,0.0659,0.0656,0.0654,0,0,0,0,0,0,0,0,0,0,0,0,0,0.0904,0.0902,0.0778,0.0777,0.0777,0.0716,0.0715,0.0714,0.0722,0.0723,0.0725,0.0726,0.066,0.0657,0.0654,0,0,0,0,0,0,0,0,0,0,0,0,0,0.0846,0.0901,0.0778,0.0774,0.0772,0.0716,0.0715,0.0714,0.0722,0.0724,0.0725,0.0727,0.0661,0.0657,0.0653,0.0597,0,0,0.0641,0.0639,0,0,0,0,0,0,0,0,0.0849,0.0841,0.0775,0.0774,0.0772,0.0728,0.0735,0.0674,0.0722,0.0741,0.0725,0.0727,0.0681,0.0675,0.066,0.0593,0.0591,0.064,0.0638,0.0636,0.0635,0,0,0,0,0,0,0,0.0853,0.0844,0.0753,0.0774,0.0772,0.0774,0.0768,0.0723,0.0703,0.0739,0.074,0.0733,0.068,0.0664,0.0658,0.059,0.064,0.0637,0.0634,0.0633,0.0474,0.0472,0,0,0,0,0,0,0.0859,0.0847,0.0755,0.0751,0.0816,0.0771,0.0763,0.0741,0.0703,0.0699,0.0731,0.0733,0.067,0.0663,0.0656,0.0587,0.0636,0.0632,0.063,0.0476,0.0474,0.0472,0,0,0,0,0,0,0.0861,0.0851,0.0758,0.08,0.0788,0.0767,0.0742,0.0739,0.0722,0.0697,0.0693,0.0718,0.0671,0.0662,0.0612,0.0585,0.063,0.0627,0.0478,0.0475,0.0473,0.0449,0,0,0,0,0,0,0.0865,0.0851,0.083,0.0799,0.0786,0.0714,0.074,0.0737,0.0715,0.0717,0.0684,0.068,0.0672,0.0618,0.0607,0.058,0.0623,0.048,0.0477,0.0473,0.0452,0.0446,0.044,0,0,0,0,0,0.087,0.0825,0.0829,0.0818,0.0758,0.0713,0.0705,0.0697,0.0713,0.0691,0.0675,0.0681,0.059,0.0612,0.0601,0.0572,0.0482,0.0478,0.0474,0.0454,0.0447,0.044,0,0,0,0,0,0,0.0852,0.0821,0.0824,0.0769,0.0744,0.0714,0.0686,0.0689,0.0658,0.0661,0.0652,0.0645,0.0593,0.0578,0.0604,0.0516,0.0538,0.0532,0.0527,0.052,0.0514,0.0518,0.062,0,0,0,0,0,0.0842,0.0808,0.0783,0.0736,0.0723,0.0707,0.0687,0.0683,0.0656,0.0645,0.0626,0.0599,0.0564,0.0542,0.0508,0.0451,0.0443,0.0425,0.0419,0.0415,0.0409,0.0377,0.0368,0.0459,0.0459,0.0459,0,0,0.082,0.0799,0.0778,0.0732,0.0712,0.0677,0.0698,0.066,0.0633,0.0639,0.059,0.0575,0.0545,0.049,0.0466,0.0476,0.0382,0.041,0.0406,0.0403,0.0372,0.0363,0.0356,0.0456,0.0457,0.0457,0,0,0.0762,0.0744,0.0702,0.0682,0.0652,0.0642,0.0632,0.0603,0.0593,0.0544,0.0548,0.0517,0.0458,0.0436,0.0417,0.0353,0.0356,0.0342,0.0312,0.0281,0.0273,0.0267,0.0243,0.0235,0.0337,0.0337,0.0337,0,0.0739,0.0686,0.0681,0.0642,0.0622,0.0627,0.0585,0.0566,0.0526,0.0512,0.0525,0.0451,0.0431,0.0371,0.0356,0.0341,0.0329,0.0345,0.0275,0.0269,0.0262,0.0239,0.0231,0.0335,0.0335,0.0336,0.0336,0,0.0658,0.0622,0.0593,0.0555,0.0531,0.0491,0.0479,0.0456,0.0455,0.0444,0.0394,0.0371,0.0333,0.0319,0.0317,0.0259,0.0266,0.0277,0.0299,0.0252,0.023,0.0222,0.0333,0.0333,0.0334,0.0334,0,0,0.0585,0.0547,0.0536,0.0519,0.0487,0.0458,0.0419,0.0383,0.0363,0.0336,0.0302,0.0253,0.0263,0.0241,0.0238,0.0211,0.016,0.0225,0.0224,0.0212,0.0094,0.0085,0.0075,0.0164,0.0162,0.0161,0.0096,0,0.0523,0.0453,0.0448,0.0385,0.0351,0.0357,0.0323,0.0299,0.0288,0.0257,0.0245,0.0209,0.0226,0.0213,0.0187,0.0172,0.0136,0.0177,0.0131,0.0129,0.0136,0.0063,0.0053,-0.0007,0.0088,0.0086,0.0085,0,0.0441,0.0412,0.0346,0.0319,0.0305,0.0274,0.0241,0.0212,0.0186,0.0179,0.0156,0.0157,0.0116,0.0141,0.0084,0.0112,0.0094,0.0084,0.0081,0.0075,0.0103,0.0053,-0.0026,-0.0036,0.0072,0.0073,0.0074,0,0.0392,0.0337,0.0291,0.0276,0.0244,0.0223,0.0208,0.0184,0.0163,0.0134,0.012,0.0087,0.0068,0.0042,0.0033,0.0053,-0.0023,0.0001,-0.0031,-0.0031,-0.0049,-0.0048,-0.0135,-0.0058,-0.0058,-0.0058,-0.0057,0,0.0322,0.0281,0.0269,0.0239,0.0194,0.0189,0.0143,0.013,0.0109,0.0077,0.0081,0.0051,0.0042,0.0011,0.0004,-0.0042,-0.005,-0.0057,-0.0059,-0.0059,-0.0058,-0.0073,-0.007,-0.006,-0.0059,-0.0059,-0.0059,0,0.0259,0.0249,0.0199,0.0173,0.0166,0.0133,0.0112,0.0084,0.0074,0.0034,0.0024,0.0008,-0.0028,-0.0039,-0.0083,-0.0087,-0.0142,-0.0139,-0.0134,-0.0134,-0.0166,-0.0164,-0.0267,-0.0281,-0.0193,-0.0194,-0.0195,0,0.0214,0.0183,0.0154,0.0134,0.0119,0.0086,0.0065,0.0059,0.0037,0.0005,-0.0019,-0.0055,-0.0084,-0.0143,-0.0159,-0.0192,-0.0191,-0.0225,-0.0196,-0.0195,-0.0194,-0.0192,-0.0196,-0.0231,-0.0232,-0.0233,-0.0233,0,0.0134,0.0132,0.0101,0.0069,0.0044,0.0019,-0.0006,-0.0023,-0.0032,-0.0057,-0.0094,-0.0117,-0.0161,-0.0197,-0.0231,-0.0246,-0.0242,-0.0241,-0.0251,-0.0252,-0.0248,-0.0252,-0.015,-0.024,-0.0239,-0.0239,-0.0238,-0.0238,0.0078,0.005,0.0026,-0.0008,-0.0026,-0.0049,-0.0076,-0.0089,-0.012,-0.0156,-0.0157,-0.0197,-0.0222,-0.0266,-0.0283,-0.0315,-0.0305,-0.0319,-0.0322,-0.0326,-0.033,-0.0241,-0.0321,-0.0321,-0.032,-0.032,-0.032,0,-0.0003,-0.0017,-0.0048,-0.0082,-0.0109,-0.01,-0.0127,-0.015,-0.0185,-0.0208,-0.0236,-0.0279,-0.0313,-0.033,-0.0365,-0.0387,-0.0386,-0.0396,-0.0395,-0.0399,-0.0336,-0.0325,-0.0396,-0.0396,-0.0396,-0.0396,-0.0396,-0.0396,-0.0048,-0.0094,-0.01,-0.0155,-0.017,-0.0209,-0.0225,-0.0245,-0.0264,-0.0311,-0.0339,-0.035,-0.037,-0.0406,-0.0437,-0.0441,-0.0455,-0.0466,-0.047,-0.0411,-0.0403,-0.0396,-0.0386,-0.0469,-0.0469,-0.053,-0.0531,-0.0531]},{"header":{"parameterUnit":"m.s-1","parameterCategory":1,"la1":30.2991,"la2":30.254,"lo1":-89.0895,"lo2":-89.0444,"dx":0.0017,"dy":0.0017,"nx":28,"ny":28,"refTime":"2022-11-16T15:00:00:Z","depth":0,"parameterNumber":3,"parameterNumberName":"V-component_of_WINDS"},"data":[0,0,0,0,0,0,0,0,0,0,0,0,0,0,0,0,0,0,0,0,0,0,0,0,0,0,0,0,0,0,0,0,0,0,0,0,0,0,0,0,0,0,0,0,0,0,0,0,0,0,0,0,0,0,0,0,0,0,-6.3471,-6.3473,0,-6.3642,-6.3644,-6.3646,-6.3563,-6.3559,-6.3555,-6.3551,-6.3722,-6.373,-6.3738,0,0,0,0,0,0,0,0,0,0,0,0,0,-6.3067,-6.3075,-6.3471,-6.3473,-6.3475,-6.3642,-6.3644,-6.3647,-6.3564,-6.3559,-6.3554,-6.3549,-6.3719,-6.3729,-6.3739,0,0,0,0,0,0,0,0,0,0,0,0,0,-6.3241,-6.3078,-6.347,-6.3454,-6.3454,-6.3641,-6.3644,-6.3647,-6.3565,-6.3559,-6.3552,-6.3546,-6.3715,-6.3728,-6.3741,-6.3952,0,0,-6.378,-6.3786,0,0,0,0,0,0,0,0,-6.3231,-6.3256,-6.3454,-6.3456,-6.3456,-6.3575,-6.3565,-6.3749,-6.3567,-6.3523,-6.355,-6.3543,-6.3678,-6.3693,-6.374,-6.396,-6.3968,-6.3781,-6.3789,-6.3795,-6.3799,0,0,0,0,0,0,0,-6.3219,-6.3248,-6.3538,-6.3457,-6.3459,-6.3437,-6.3454,-6.3599,-6.3635,-6.3526,-6.3521,-6.3542,-6.3677,-6.3728,-6.3743,-6.397,-6.3781,-6.3793,-6.3801,-6.3806,-6.4372,-6.4379,0,0,0,0,0,0,-6.3208,-6.3238,-6.3533,-6.3543,-6.3325,-6.3449,-6.3469,-6.3543,-6.3633,-6.3641,-6.3548,-6.3538,-6.3709,-6.3728,-6.3749,-6.4003,-6.3795,-6.3807,-6.3814,-6.4365,-6.4373,-6.4381,0,0,0,0,0,0,-6.32,-6.3235,-6.3526,-6.339,-6.3425,-6.3463,-6.3548,-6.355,-6.3601,-6.365,-6.3655,-6.3594,-6.3704,-6.3731,-6.3902,-6.4007,-6.3813,-6.3825,-6.4356,-6.4367,-6.4377,-6.4512,0,0,0,0,0,0,-6.3189,-6.3233,-6.3315,-6.3392,-6.3433,-6.3679,-6.3554,-6.3558,-6.3624,-6.3613,-6.3694,-6.3701,-6.3701,-6.3884,-6.3915,-6.4022,-6.3835,-6.4347,-6.4361,-6.4374,-6.4498,-6.4526,-6.4549,0,0,0,0,0,-6.3175,-6.3345,-6.332,-6.3356,-6.3536,-6.3685,-6.3708,-6.3706,-6.3633,-6.3715,-6.3746,-6.3698,-6.3991,-6.3902,-6.3937,-6.4049,-6.434,-6.4357,-6.4373,-6.4486,-6.452,-6.4549,0,0,0,0,0,0,-6.3278,-6.3355,-6.3328,-6.3528,-6.3601,-6.3671,-6.3774,-6.3742,-6.3836,-6.3821,-6.3813,-6.3832,-6.4011,-6.4046,-6.3946,-6.4258,-6.4154,-6.4178,-6.4228,-6.4261,-6.4286,-6.4274,-6.3845,0,0,0,0,0,-6.3324,-6.344,-6.35,-6.3672,-6.371,-6.3736,-6.3801,-6.3793,-6.3867,-6.3897,-6.3941,-6.4014,-6.4121,-6.4193,-6.4295,-6.4502,-6.4518,-6.4596,-6.4622,-6.4643,-6.4664,-6.4776,-6.4811,-6.4435,-6.4435,-6.4434,0,0,-6.3421,-6.3477,-6.3551,-6.3694,-6.3749,-6.3868,-6.3762,-6.3893,-6.398,-6.3916,-6.4082,-6.4117,-6.4197,-6.4387,-6.4473,-6.4423,-6.4771,-6.4664,-6.468,-6.469,-6.4796,-6.4832,-6.4863,-6.4446,-6.4444,-6.4442,0,0,-6.3658,-6.3713,-6.3861,-6.3919,-6.4005,-6.4021,-6.4057,-6.4132,-6.4153,-6.4319,-6.4273,-6.4376,-6.4563,-6.4622,-6.4676,-6.4935,-6.4895,-6.4968,-6.5103,-6.5212,-6.5242,-6.5268,-6.536,-6.5394,-6.4989,-6.4989,-6.499,0,-6.3767,-6.3946,-6.3941,-6.4076,-6.414,-6.4088,-6.4238,-6.4294,-6.4408,-6.4452,-6.4394,-6.4627,-6.4677,-6.4881,-6.4944,-6.499,-6.503,-6.496,-6.5238,-6.5265,-6.5289,-6.5377,-6.5412,-6.4998,-6.4997,-6.4996,-6.4995,0,-6.4075,-6.42,-6.431,-6.4423,-6.4499,-6.464,-6.4656,-6.4733,-6.4718,-6.474,-6.4909,-6.4968,-6.5081,-6.5128,-6.5115,-6.533,-6.5296,-6.5239,-6.5134,-6.5333,-6.5416,-6.5449,-6.501,-6.5007,-6.5004,-6.5002,0,0,-6.4383,-6.4492,-6.4533,-6.4583,-6.4673,-6.4769,-6.4907,-6.5019,-6.5085,-6.5165,-6.528,-6.5439,-6.5386,-6.5448,-6.544,-6.5536,-6.5737,-6.5467,-6.5468,-6.5515,-6.5978,-6.6021,-6.6061,-6.5711,-6.5717,-6.5722,-6.5971,0,-6.4627,-6.4871,-6.4871,-6.5096,-6.521,-6.5163,-6.5283,-6.535,-6.5374,-6.5473,-6.5498,-6.5612,-6.5533,-6.557,-6.5663,-6.5693,-6.583,-6.5675,-6.5817,-6.5822,-6.5799,-6.6104,-6.615,-6.6383,-6.6003,-6.6009,-6.6013,0,-6.4945,-6.5037,-6.5273,-6.5347,-6.5395,-6.5503,-6.5605,-6.5701,-6.5776,-6.5786,-6.5856,-6.5833,-6.5972,-6.5863,-6.6054,-6.5949,-6.6006,-6.6029,-6.6038,-6.6052,-6.593,-6.6126,-6.6457,-6.6492,-6.6063,-6.6059,-6.6056,0,-6.5146,-6.5329,-6.5494,-6.5538,-6.5628,-6.5705,-6.5746,-6.5814,-6.5882,-6.597,-6.6013,-6.6117,-6.6173,-6.6253,-6.6258,-6.6178,-6.645,-6.6342,-6.6462,-6.6462,-6.6522,-6.6519,-6.6868,-6.6559,-6.6558,-6.6557,-6.6557,0,-6.5419,-6.5565,-6.5586,-6.5688,-6.585,-6.5847,-6.6007,-6.604,-6.6102,-6.6208,-6.6172,-6.6272,-6.6273,-6.6374,-6.6379,-6.6536,-6.6561,-6.6573,-6.6573,-6.6577,-6.6576,-6.6615,-6.6599,-6.6567,-6.6565,-6.6563,-6.6561,0,-6.5672,-6.5691,-6.5868,-6.5939,-6.596,-6.6076,-6.6136,-6.6232,-6.6252,-6.6387,-6.6418,-6.6449,-6.6567,-6.658,-6.6717,-6.6719,-6.6909,-6.6891,-6.6885,-6.6882,-6.7002,-6.6991,-6.7389,-6.7441,-6.7098,-6.7101,-6.7104,0,-6.5845,-6.5957,-6.604,-6.6109,-6.6154,-6.6266,-6.6335,-6.6335,-6.6408,-6.6502,-6.6586,-6.6701,-6.6793,-6.6982,-6.7016,-6.712,-6.7105,-6.7237,-6.712,-6.7121,-6.7107,-6.7101,-6.7112,-6.726,-6.7264,-6.7267,-6.7269,0,-6.615,-6.6154,-6.6256,-6.6361,-6.6444,-6.6527,-6.6604,-6.6662,-6.6672,-6.6755,-6.6876,-6.6947,-6.7087,-6.7201,-6.7303,-6.7342,-6.7308,-6.7306,-6.7339,-6.7345,-6.7337,-6.7344,-6.6947,-6.7297,-6.7294,-6.7292,-6.7291,-6.7289,-6.6369,-6.6466,-6.654,-6.6654,-6.6712,-6.6785,-6.6879,-6.6911,-6.7012,-6.7128,-6.7121,-6.7254,-6.7325,-6.7459,-6.7506,-6.7609,-6.7565,-6.7613,-6.7626,-6.7638,-6.765,-6.732,-6.7627,-6.7627,-6.7626,-6.7625,-6.7625,0,-6.6673,-6.6718,-6.6823,-6.6933,-6.7022,-6.6982,-6.7065,-6.7142,-6.7261,-6.733,-6.7421,-6.756,-6.767,-6.7712,-6.7819,-6.7894,-6.788,-6.7922,-6.7917,-6.7926,-6.7683,-6.7644,-6.7931,-6.7931,-6.7931,-6.7931,-6.793,-6.793,-6.6842,-6.7005,-6.7018,-6.7208,-6.7251,-6.7383,-6.7434,-6.75,-6.7556,-6.7712,-6.7804,-6.7832,-6.789,-6.8001,-6.81,-6.8109,-6.815,-6.8199,-6.8202,-6.7974,-6.7943,-6.7914,-6.7877,-6.8208,-6.8208,-6.8436,-6.8438,-6.844]}]]